Regional Weather Roundup
Issued by NWS

Home | Current Version | Previous Version | Graphics & Text | Print | Product List | Glossary On
Versions: 1 2 3 4 5 6 7 8 9 10 11 12 13 14 15 16 17 18 19 20 21 22 23 24 25 26 27 28 29 30 31 32 33 34 35 36 37 38 39 40 41 42 43 44 45 46 47 48 49 50
000
ASUS43 KIND 161559
RWRIN

WEATHER ROUNDUP FOR INDIANA
NATIONAL WEATHER SERVICE INDIANAPOLIS IN
1100 AM EST SAT DEC 16 2017

NOTE: "FAIR" INDICATES FEW OR NO CLOUDS BELOW 12,000 FEET WITH NO
SIGNIFICANT WEATHER AND/OR OBSTRUCTIONS TO VISIBILITY.

* - STATION DOES NOT REPORT WEATHER SUCH AS PRECIPITATION OR FOG.

+ - STATION NOT QUALITY CONTROLLED BY THE NATIONAL WEATHER SERVICE.
    USE DATA WITH CAUTION...ESPECIALLY DEWPOINT AND RELATIVE
    HUMIDITY OBSERVATIONS.

INZ001>003-010>013-019-020-161700-
NORTHWEST INDIANA

CITY           SKY/WX    TMP DP  RH WIND       PRES   REMARKS
GARY /AIRPORT/ MOSUNNY   39  23  52 SW12      29.93R WCI  32
MICHIGAN CITY+ SUNNY     37  27  65 SW10      29.94R WCI  30
MONTICELLO +   SUNNY     40  25  54 SW15G22   29.96R WCI  32
RENSSELAER +   SUNNY     41  21  45 SW16      29.95R

$$

LMZ046-743>745-161700-
SOUTHERN LAKE MICHIGAN

STATION/POSITION TIME  TEMP    WIND        PRES    WAVE
                       AIR SEA DIR/SP/G            HT
                 (UTC) (F)     (DEG/KT/KT) (MB)    (FT)
BURNS HARBOR     1540   38     210/ 13/ 15 1014.2R
MICHIGAN CITY    1530   36     200/ 14/ 16   N/A

$$

INZ004-005-014>016-021>024-161700-
NORTH CENTRAL INDIANA

CITY           SKY/WX    TMP DP  RH WIND       PRES   REMARKS
ELKHART        SUNNY     36  25  64 SW8       29.94R WCI  29
GOSHEN         SUNNY     35  26  69 SW13      29.95R WCI  26
PERU/GRISSOM   SUNNY     41  27  58 SW18      29.96R
SOUTH BEND     SUNNY     35  26  69 SW13      29.95R WCI  26

$$

INZ006>009-017-018-025>027-161700-
NORTHEAST INDIANA

CITY           SKY/WX    TMP DP  RH WIND       PRES   REMARKS
FORT WAYNE     MOSUNNY   37  28  70 SW14      29.98R WCI  28

$$

INZ028-029-035-036-043>045-051>053-161700-
WEST CENTRAL INDIANA

CITY           SKY/WX    TMP DP  RH WIND       PRES   REMARKS
LAFAYETTE      SUNNY     40  27  59 SW15G22   29.98R WCI  32
TERRE HAUTE    SUNNY     41  28  60 SW16G23   30.04R

$$

INZ030>032-037>040-046>048-054>057-064-065-161700-
CENTRAL INDIANA

CITY           SKY/WX    TMP DP  RH WIND       PRES   REMARKS
ANDERSON       SUNNY     39  27  60 SW12G23   30.01R WCI  32
COLUMBUS       SUNNY     39  27  60 SW14      30.07S WCI  31
INDIANAPOLIS   SUNNY     41  27  57 SW18G26   30.02R
-EAGLE CREEK   SUNNY     42  27  55 SW12G22   30.00R
KOKOMO +       SUNNY     41  27  57 SW17      29.99R
MT COMFORT *+  SUNNY     39  32  75 SW12      30.01S WCI  32
SHELBYVILLE    SUNNY     41  27  57 S18G26    30.03S

$$

INZ033-034-041-042-049-050-058-059-161700-
EAST CENTRAL INDIANA

CITY           SKY/WX    TMP DP  RH WIND       PRES   REMARKS
MUNCIE         SUNNY     42  26  53 SW14G23   30.00R
RICHMOND +     SUNNY     37  28  70 SW20G25   30.04R WCI  27

$$

INZ060-061-067>069-081>083-085>088-161700-
SOUTHWEST INDIANA

CITY           SKY/WX    TMP DP  RH WIND       PRES   REMARKS
EVANSVILLE     SUNNY     40  31  70 SW16G24   30.15R WCI  31
HUNTINGBURG +  SUNNY     41  30  65 SW13      30.14R

$$

INZ062-063-066-070>080-084-089>092-161700-
SOUTH CENTRAL AND SOUTHEAST INDIANA

CITY           SKY/WX    TMP DP  RH WIND       PRES   REMARKS
BLOOMINGTON    SUNNY     43  27  53 SW20G26   30.06R
MADISON *+     SUNNY     39  28  65 S13       30.13S WCI  32
SEYMOUR +      SUNNY     43  28  56 SW13G18   30.10R

$$





USA.gov is the U.S. government's official web portal to all federal, state and local government web resources and services.